FW4339 Weather Reports


Display with metric or nautical units.
time (UTC)temp
F
wind
direction
speed
MPH
gust
MPH
rain 1hr
in
rain 24hr
in
rain mn
in
humidity
%
barometer
mb
20260505101529 74 0.0 0.0 0.00 0.00 0.00 35 1014.5
20260505100017 73 0.0 0.0 0.00 0.00 0.00 35 1014.6
20260505094514 74 0.0 0.0 0.00 0.00 0.00 34 1014.9
20260505093012 76 0.0 0.0 0.00 0.00 0.00 31 1015.0
20260505091511 75 0.0 0.0 0.00 0.00 0.00 32 1015.1
20260505090011 74 0.0 0.0 0.00 0.00 0.00 33 1015.2
20260505084523 74 0.0 0.0 0.00 0.00 0.00 35 1015.2
20260505083002 74 0.0 0.0 0.00 0.00 0.00 39 1015.3
20260505081601 73 0.0 0.0 0.00 0.00 0.00 40 1015.4
20260505080057 72 0.0 0.0 0.00 0.00 0.00 40 1015.4
20260505074553 71 0.0 0.0 0.00 0.00 0.00 43 1015.4
20260505073051 69 0.0 0.0 0.00 0.00 0.00 46 1015.5
20260505071546 68 0.0 0.0 0.00 0.00 0.00 48 1015.6
20260505070058 66 0.0 0.0 0.00 0.00 0.00 52 1015.5
20260505064538 65 0.0 0.0 0.00 0.00 0.00 53 1015.4
20260505063034 63 0.0 0.0 0.00 0.00 0.00 56 1015.6
20260505061542 62 0.0 0.0 0.00 0.00 0.00 59 1015.5
20260505060025 60 0.0 0.0 0.00 0.00 0.00 62 1015.4
20260505054526 59 0.0 0.0 0.00 0.00 0.00 64 1015.6
20260505053022 57 0.0 0.0 0.00 0.00 0.00 65 1015.6
20260505051551 56 0.0 0.0 0.00 0.00 0.00 64 1015.5
20260505041534 53 0.0 0.0 0.00 0.00 0.00 61 1015.3
20260505040040 53 0.0 0.0 0.00 0.00 0.00 60 1015.1
20260505034536 53 0.0 0.0 0.00 0.00 0.00 59 1015.1
20260505033027 53 0.0 0.0 0.00 0.00 0.00 59 1015.0
20260505031527 53 0.0 0.0 0.00 0.00 0.00 60 1015.0
20260505030026 53 0.0 0.0 0.00 0.00 0.00 61 1015.1
20260505024525 53 0.0 0.0 0.00 0.00 0.00 62 1015.1
20260505023025 53 0.0 0.0 0.00 0.00 0.00 62 1015.1
20260505021524 53 0.0 0.0 0.00 0.00 0.00 61 1015.1
20260505020035 53 0.0 0.0 0.00 0.00 0.00 62 1015.2
20260505014523 53 0.0 0.0 0.00 0.00 0.00 60 1015.3
20260505013025 54 0.0 0.0 0.00 0.00 0.00 60 1015.3
20260505011523 54 0.0 0.0 0.00 0.00 0.00 59 1015.3
20260505010024 54 0.0 0.0 0.00 0.00 0.00 59 1015.3
20260505004523 53 0.0 0.0 0.00 0.00 0.00 59 1015.4
20260505003021 53 0.0 0.0 0.00 0.00 0.00 62 1015.3
20260505001519 54 0.0 0.0 0.00 0.00 0.00 58 1015.4
20260505000022 54 0.0 0.0 0.00 0.00 0.00 56 1015.3
20260504234515 55 0.0 0.0 0.00 0.00 0.00 55 1015.5
20260504233013 55 0.0 0.0 0.00 0.00 0.00 53 1015.6
20260504231512 54 0.0 0.0 0.00 0.00 0.00 53 1015.7
20260504230010 54 0.0 0.0 0.00 0.00 0.00 56 1015.8
20260504224511 54 0.0 0.0 0.00 0.00 0.00 56 1016.1
20260504223011 55 0.0 0.0 0.00 0.00 0.00 56 1016.2
20260504221510 54 0.0 0.0 0.00 0.00 0.00 55 1016.2
20260504220026 55 0.0 0.0 0.00 0.00 0.00 58 1016.1
20260504214505 56 0.0 0.0 0.00 0.00 0.00 58 1016.2
20260504213003 56 0.0 0.0 0.00 0.00 0.00 58 1016.2
20260504211502 56 0.0 0.0 0.00 0.00 0.00 58 1016.4
20260504210106 57 0.0 0.0 0.00 0.00 0.00 56 1016.4
20260504204606 57 0.0 0.0 0.00 0.00 0.00 55 1016.5
20260504203101 57 0.0 0.0 0.00 0.00 0.00 52 1016.6
20260504201558 57 0.0 0.0 0.00 0.00 0.00 48 1016.7
20260504200057 57 0.0 0.0 0.00 0.00 0.00 47 1016.8
20260504194508 57 0.0 0.0 0.00 0.00 0.00 47 1016.7
20260504193005 59 0.0 0.0 0.00 0.00 0.00 36 1016.6
20260504191503 60 0.0 0.0 0.00 0.00 0.00 36 1016.6
20260504190006 59 0.0 0.0 0.00 0.00 0.00 36 1016.7
20260504184508 60 0.0 0.0 0.00 0.00 0.00 35 1016.6
20260504183007 60 0.0 0.0 0.00 0.00 0.00 35 1016.6
20260504181506 60 0.0 0.0 0.00 0.00 0.00 35 1016.5
20260504180005 61 0.0 0.0 0.00 0.00 0.00 33 1016.3
20260504174545 61 0.0 0.0 0.00 0.00 0.00 32 1016.2
20260504173043 61 0.0 0.0 0.00 0.00 0.00 32 1016.2
20260504171542 62 0.0 0.0 0.00 0.00 0.00 33 1016.2